ProjectID,Date,Electric Generation,Electric Utility Import,Facility Electric Load
,YYYY-MM-DD,kW,kW,kW
468,2007-03-01,30.083333333333332,195.33333333333334,225.41666666666669
468,2007-03-02,251.70833333333334,195.83333333333334,447.5416666666667
468,2007-03-03,2.4583333333333335,348.5,350.9583333333333
468,2007-03-04,0.041666666666666664,233.25,233.29166666666666
468,2007-03-05,139.91666666666666,234.0,373.91666666666663
468,2007-03-06,252.20833333333334,243.0,495.20833333333337
468,2007-03-07,249.125,177.25,426.375
468,2007-03-08,243.20833333333334,206.58333333333334,449.7916666666667
468,2007-03-09,252.29166666666666,393.8333333333333,646.125
468,2007-03-10,291.125,219.66666666666666,510.79166666666663
468,2007-03-11,190.375,232.08333333333334,422.45833333333337
468,2007-03-12,127.95833333333333,264.6666666666667,392.625
468,2007-03-13,251.625,269.9166666666667,521.5416666666667
468,2007-03-14,209.66666666666666,261.1666666666667,470.83333333333337
468,2007-03-15,239.0,183.08333333333334,422.08333333333337
468,2007-03-16,201.29166666666666,184.25,385.54166666666663
468,2007-03-17,129.95833333333334,251.0,380.95833333333337
468,2007-03-18,0.0,191.33333333333334,191.33333333333334
468,2007-03-19,81.0,320.4166666666667,401.4166666666667
468,2007-03-20,213.29166666666666,217.0,430.29166666666663
468,2007-03-21,236.45833333333334,260.75,497.20833333333337
468,2007-03-22,241.0,169.41666666666666,410.41666666666663
468,2007-03-23,272.5833333333333,193.5,466.0833333333333
468,2007-03-24,144.75,330.9166666666667,475.6666666666667
468,2007-03-25,0.0,207.5,207.5
468,2007-03-26,119.875,294.0833333333333,413.9583333333333
468,2007-03-27,405.6666666666667,219.25,624.9166666666667
468,2007-03-28,401.75,175.0,576.75
468,2007-03-29,398.375,216.66666666666666,615.0416666666666
468,2007-03-30,394.875,225.75,620.625
468,2007-03-31,340.2916666666667,249.16666666666666,589.4583333333334
468,2007-04-01,160.0,315.1666666666667,475.1666666666667
468,2007-04-02,194.83333333333334,209.58333333333334,404.4166666666667
468,2007-04-03,404.2916666666667,189.08333333333334,593.375
468,2007-04-04,388.7916666666667,174.75,563.5416666666667
468,2007-04-05,336.8333333333333,220.8181818181818,557.6515151515151
468,2007-04-06,195.54166666666666,239.08333333333334,434.625
468,2007-04-07,0.0,182.75,182.75
468,2007-04-08,0.0,184.91666666666666,184.91666666666666
468,2007-04-09,231.0,193.58333333333334,424.58333333333337
468,2007-04-10,382.9166666666667,210.0,592.9166666666667
468,2007-04-11,302.4166666666667,359.39130434782606,661.8079710144928
468,2007-04-12,255.25,256.3333333333333,511.5833333333333
468,2007-04-13,199.58333333333334,293.7391304347826,493.322463768116
468,2007-04-14,215.375,221.75,437.125
468,2007-04-15,195.58333333333334,144.0,339.58333333333337
468,2007-04-16,179.91666666666666,274.1666666666667,454.08333333333337
468,2007-04-17,389.9166666666667,249.5,639.4166666666667
468,2007-04-18,409.0416666666667,200.66666666666666,609.7083333333334
468,2007-04-19,432.7916666666667,170.58333333333334,603.375
468,2007-04-20,426.0416666666667,183.91666666666666,609.9583333333334
468,2007-04-21,244.54166666666666,183.33333333333334,427.875
468,2007-04-22,0.0,169.91666666666666,169.91666666666666
468,2007-04-23,231.33333333333334,170.41666666666666,401.75
468,2007-04-24,422.75,176.08333333333334,598.8333333333334
468,2007-04-25,423.5416666666667,196.58333333333334,620.125
468,2007-04-26,428.7083333333333,188.75,617.4583333333333
468,2007-04-27,445.5,183.91666666666666,629.4166666666666
468,2007-04-28,424.9166666666667,168.58333333333334,593.5
468,2007-04-29,231.25,198.83333333333334,430.08333333333337
468,2007-04-30,240.33333333333334,164.91666666666666,405.25
468,2007-05-01,440.0,151.0,591.0
468,2007-05-02,456.7916666666667,162.25,619.0416666666667
468,2007-05-03,447.5833333333333,152.5,600.0833333333333
468,2007-05-04,450.5416666666667,147.16666666666666,597.7083333333334
468,2007-05-05,462.9166666666667,134.41666666666666,597.3333333333334
468,2007-05-06,254.45833333333334,215.33333333333334,469.7916666666667
468,2007-05-07,273.0833333333333,268.5833333333333,541.6666666666666
468,2007-05-08,471.0833333333333,177.16666666666666,648.25
468,2007-05-09,461.625,180.33333333333334,641.9583333333334
468,2007-05-10,418.9583333333333,217.5,636.4583333333333
468,2007-05-11,436.25,336.25,772.5
468,2007-05-12,454.75,209.0,663.75
468,2007-05-13,256.9583333333333,204.33333333333334,461.29166666666663
468,2007-05-14,239.625,269.5,509.125
468,2007-05-15,440.4166666666667,228.41666666666666,668.8333333333334
468,2007-05-16,447.75,264.0,711.75
468,2007-05-17,445.6666666666667,314.75,760.4166666666667
468,2007-05-18,463.875,254.75,718.625
468,2007-05-19,438.4583333333333,164.25,602.7083333333333
468,2007-05-20,219.625,239.25,458.875
468,2007-05-21,187.875,311.5,499.375
468,2007-05-22,194.0,256.2,450.2
468,2007-05-23,458.875,284.25,743.125
468,2007-05-24,428.0833333333333,234.83333333333334,662.9166666666666
468,2007-05-25,409.7916666666667,199.75,609.5416666666667
468,2007-05-26,240.25,234.58333333333334,474.83333333333337
468,2007-05-27,0.0,190.91666666666666,190.91666666666666
468,2007-05-28,0.0,193.33333333333334,193.33333333333334
468,2007-05-29,238.79166666666666,192.33333333333334,431.125
468,2007-05-30,449.5,185.58333333333334,635.0833333333334
468,2007-05-31,427.4583333333333,270.25,697.7083333333333
468,2007-06-01,420.9166666666667,262.5833333333333,683.5
468,2007-06-02,476.875,228.25,705.125
468,2007-06-03,315.0833333333333,158.33333333333334,473.41666666666663
468,2007-06-04,227.33333333333334,253.88888888888889,481.22222222222223
468,2007-06-05,366.625,345.6666666666667,712.2916666666667
468,2007-06-06,448.875,276.8333333333333,725.7083333333333
468,2007-06-07,456.8333333333333,336.75,793.5833333333333
468,2007-06-08,417.5416666666667,389.4166666666667,806.9583333333334
468,2007-06-09,218.83333333333334,374.5,593.3333333333334
468,2007-06-10,65.91666666666667,220.66666666666666,286.5833333333333
468,2007-06-11,173.95833333333334,451.5,625.4583333333334
468,2007-06-12,394.5,355.0,749.5
468,2007-06-13,210.45833333333334,408.46153846153845,618.9198717948718
468,2007-06-14,398.4166666666667,261.7142857142857,660.1309523809524
468,2007-06-15,453.5833333333333,369.4166666666667,823.0
468,2007-06-16,273.8333333333333,215.25,489.0833333333333
468,2007-06-17,0.0,251.25,251.25
468,2007-06-18,123.75,494.75,618.5
468,2007-06-19,463.8333333333333,168.91666666666666,632.75
468,2007-06-20,366.8333333333333,339.75,706.5833333333333
468,2007-06-21,446.6666666666667,163.16666666666666,609.8333333333334
468,2007-06-22,466.2083333333333,426.25,892.4583333333333
468,2007-06-23,282.75,207.25,490.0
468,2007-06-24,48.75,215.5,264.25
468,2007-06-25,239.33333333333334,235.58333333333334,474.9166666666667
468,2007-06-26,301.4583333333333,206.47058823529412,507.9289215686274
468,2007-06-27,241.75,276.0,517.75
468,2007-06-28,380.625,276.0,656.625
468,2007-06-29,421.4166666666667,350.6666666666667,772.0833333333334
468,2007-06-30,468.1666666666667,171.16666666666666,639.3333333333334
468,2007-07-01,314.6666666666667,143.66666666666666,458.33333333333337
468,2007-07-02,257.9166666666667,246.66666666666666,504.58333333333337
468,2007-07-03,487.0416666666667,160.91666666666666,647.9583333333334
468,2007-07-04,253.79166666666666,176.83333333333334,430.625
468,2007-07-05,200.79166666666666,267.4166666666667,468.20833333333337
468,2007-07-06,452.6666666666667,200.58333333333334,653.25
468,2007-07-07,326.5,150.75,477.25
468,2007-07-08,200.95833333333334,246.75,447.70833333333337
468,2007-07-09,310.9166666666667,294.8333333333333,605.75
468,2007-07-10,433.7916666666667,241.0,674.7916666666667
468,2007-07-11,405.3333333333333,268.4166666666667,673.75
468,2007-07-12,424.4583333333333,186.54545454545453,611.0037878787879
468,2007-07-13,196.25,336.1818181818182,532.4318181818182
468,2007-07-14,292.8333333333333,173.52380952380952,466.35714285714283
468,2007-07-15,130.33333333333334,222.91666666666666,353.25
468,2007-07-16,220.125,320.6666666666667,540.7916666666667
468,2007-07-17,465.3333333333333,182.91666666666666,648.25
468,2007-07-18,431.7916666666667,274.1666666666667,705.9583333333334
468,2007-07-19,404.0416666666667,339.1666666666667,743.2083333333334
468,2007-07-20,425.25,227.08333333333334,652.3333333333334
468,2007-07-21,369.2916666666667,236.66666666666666,605.9583333333334
468,2007-07-22,316.4583333333333,192.41666666666666,508.875
468,2007-07-23,311.7916666666667,272.3333333333333,584.125
468,2007-07-24,301.375,157.6,458.975
468,2007-07-25,390.7916666666667,277.1666666666667,667.9583333333334
468,2007-07-26,422.5,237.83333333333334,660.3333333333334
468,2007-07-27,381.5,279.5833333333333,661.0833333333333
468,2007-07-28,133.25,506.0833333333333,639.3333333333333
468,2007-07-29,41.166666666666664,251.33333333333334,292.5
468,2007-07-30,312.25,184.66666666666666,496.91666666666663
468,2007-07-31,438.0,243.0,681.0
468,2007-08-01,467.2916666666667,280.0833333333333,747.375
468,2007-08-02,454.3333333333333,196.75,651.0833333333333
468,2007-08-03,449.1666666666667,191.25,640.4166666666667
468,2007-08-04,197.16666666666666,198.11764705882354,395.28431372549016
468,2007-08-05,165.91666666666666,116.58333333333333,282.5
468,2007-08-06,305.2916666666667,168.33333333333334,473.625
468,2007-08-07,435.9166666666667,180.16666666666666,616.0833333333334
468,2007-08-08,422.5416666666667,317.1666666666667,739.7083333333334
468,2007-08-09,479.875,148.25,628.125
468,2007-08-10,419.375,190.33333333333334,609.7083333333334
468,2007-08-11,506.0,146.16666666666666,652.1666666666666
468,2007-08-12,365.625,147.75,513.375
468,2007-08-13,319.0416666666667,275.5,594.5416666666667
468,2007-08-14,188.04166666666666,447.9166666666667,635.9583333333334
468,2007-08-15,191.54166666666666,545.9166666666666,737.4583333333333
468,2007-08-16,95.70833333333333,200.8695652173913,296.5778985507246
468,2007-08-17,0.0,0.0,0.0
468,2007-08-18,0.0,0.0,0.0
468,2007-08-19,0.0,0.0,0.0
468,2007-08-20,0.0,0.0,0.0
468,2007-08-21,0.0,0.0,0.0
468,2007-08-22,0.0,0.0,0.0
468,2007-08-23,0.0,0.0,0.0
468,2007-08-24,0.0,0.0,0.0
468,2007-08-25,0.0,0.0,0.0
468,2007-08-26,0.0,0.0,0.0
468,2007-08-27,0.0,0.0,0.0
468,2007-08-28,0.0,0.0,0.0
468,2007-08-29,0.0,0.0,0.0
468,2007-08-30,0.0,0.0,0.0
468,2007-08-31,0.0,0.0,0.0
468,2007-09-01,153.54166666666666,49.833333333333336,203.375
468,2007-09-02,94.95833333333333,277.1666666666667,372.125
468,2007-09-03,0.0,246.08333333333334,246.08333333333334
468,2007-09-04,0.0,271.6666666666667,271.6666666666667
468,2007-09-05,154.70833333333334,288.90909090909093,443.61742424242425
468,2007-09-06,412.375,186.3,598.675
468,2007-09-07,465.1666666666667,198.0,663.1666666666667
468,2007-09-08,452.9583333333333,315.5,768.4583333333333
468,2007-09-09,240.66666666666666,283.25,523.9166666666666
468,2007-09-10,11.208333333333334,242.0,253.20833333333334
468,2007-09-11,306.125,232.42857142857142,538.5535714285714
468,2007-09-12,532.1666666666666,214.33333333333334,746.5
468,2007-09-13,508.1666666666667,227.75,735.9166666666667
468,2007-09-14,532.5416666666666,284.5833333333333,817.125
468,2007-09-15,534.4166666666666,229.33333333333334,763.75
468,2007-09-16,84.83333333333333,377.5,462.3333333333333
468,2007-09-17,0.0,227.33333333333334,227.33333333333334
468,2007-09-18,400.4166666666667,265.4166666666667,665.8333333333334
468,2007-09-19,465.625,225.58333333333334,691.2083333333334
468,2007-09-20,326.4166666666667,124.33333333333333,450.75
468,2007-09-21,532.75,317.75,850.5
468,2007-09-22,218.04166666666666,255.64705882352942,473.6887254901961
468,2007-09-23,0.0,249.5,249.5
468,2007-09-24,278.625,262.8333333333333,541.4583333333333
468,2007-09-25,529.3333333333334,185.91666666666666,715.25
468,2007-09-26,232.79166666666666,281.2307692307692,514.0224358974359
468,2007-09-27,481.25,205.61904761904762,686.8690476190476
468,2007-09-28,548.3333333333334,211.41666666666666,759.75
468,2007-09-29,234.54166666666666,289.4166666666667,523.9583333333334
468,2007-09-30,22.791666666666668,254.75,277.5416666666667
468,2007-10-01,452.5833333333333,336.75,789.3333333333333
468,2007-10-02,670.1666666666666,329.5833333333333,999.75
468,2007-10-03,538.7916666666666,564.0,1102.7916666666665
468,2007-10-04,797.25,372.8333333333333,1170.0833333333333
468,2007-10-05,566.6666666666666,446.0833333333333,1012.75
468,2007-10-06,347.3333333333333,374.8333333333333,722.1666666666666
468,2007-10-07,0.0,413.75,413.75
468,2007-10-08,0.5,362.75,363.25
468,2007-10-09,606.75,305.8333333333333,912.5833333333333
468,2007-10-10,817.7083333333334,374.5833333333333,1192.2916666666667
468,2007-10-11,919.2916666666666,306.5833333333333,1225.875
468,2007-10-12,531.875,275.2857142857143,807.1607142857142
468,2007-10-13,313.0833333333333,282.54545454545456,595.6287878787879
468,2007-10-14,0.0,196.41666666666666,196.41666666666666
468,2007-10-15,526.9166666666666,225.41666666666666,752.3333333333333
468,2007-10-16,859.5416666666666,272.5833333333333,1132.125
468,2007-10-17,807.6666666666666,314.9166666666667,1122.5833333333333
468,2007-10-18,804.875,387.25,1192.125
468,2007-10-19,906.4166666666666,363.8333333333333,1270.25
468,2007-10-20,466.5416666666667,266.8333333333333,733.375
468,2007-10-21,0.0,182.25,182.25
468,2007-10-22,552.2083333333334,257.5833333333333,809.7916666666667
468,2007-10-23,997.9583333333334,259.25,1257.2083333333335
468,2007-10-24,843.9583333333334,383.25,1227.2083333333335
468,2007-10-25,851.1666666666666,300.75,1151.9166666666665
468,2007-10-26,869.25,282.0833333333333,1151.3333333333333
468,2007-10-27,639.5,213.0,852.5
468,2007-10-28,243.5,283.6666666666667,527.1666666666667
468,2007-10-29,450.9583333333333,257.3333333333333,708.2916666666666
468,2007-10-30,792.7916666666666,214.91666666666666,1007.7083333333333
468,2007-10-31,877.3333333333334,232.25,1109.5833333333335
468,2007-11-01,864.375,253.58333333333334,1117.9583333333333
468,2007-11-02,838.875,269.0833333333333,1107.9583333333333
468,2007-11-03,645.25,252.66666666666666,897.9166666666666
468,2007-11-04,239.58333333333334,294.4166666666667,534.0
468,2007-11-05,446.4166666666667,281.5833333333333,728.0
468,2007-11-06,419.4166666666667,309.1666666666667,728.5833333333334
468,2007-11-07,445.4583333333333,342.25,787.7083333333333
468,2007-11-08,846.0,378.4166666666667,1224.4166666666667
468,2007-11-09,870.2083333333334,399.3333333333333,1269.5416666666667
468,2007-11-10,424.2916666666667,352.9166666666667,777.2083333333334
468,2007-11-11,0.0,246.58333333333334,246.58333333333334
468,2007-11-12,0.0,201.33333333333334,201.33333333333334
468,2007-11-13,380.6666666666667,287.5833333333333,668.25
468,2007-11-14,842.0,253.75,1095.75
468,2007-11-15,759.2916666666666,330.75,1090.0416666666665
468,2007-11-16,810.75,321.6666666666667,1132.4166666666667
468,2007-11-17,398.0,290.1666666666667,688.1666666666667
468,2007-11-18,0.0,195.66666666666666,195.66666666666666
468,2007-11-19,286.6666666666667,382.5,669.1666666666667
468,2007-11-20,520.3333333333334,575.1666666666666,1095.5
468,2007-11-21,757.8333333333334,356.75,1114.5833333333335
468,2007-11-22,524.3333333333334,203.83333333333334,728.1666666666667
468,2007-11-23,472.625,197.91666666666666,670.5416666666666
468,2007-11-24,498.5,235.91666666666666,734.4166666666666
468,2007-11-25,22.291666666666668,233.66666666666666,255.95833333333331
468,2007-11-26,462.3333333333333,204.33333333333334,666.6666666666666
468,2007-11-27,932.9166666666666,205.91666666666666,1138.8333333333333
468,2007-11-28,875.0833333333334,236.33333333333334,1111.4166666666667
468,2007-11-29,917.4583333333334,174.0,1091.4583333333335
468,2007-11-30,894.3333333333334,202.75,1097.0833333333335
468,2007-12-01,536.5833333333334,206.75,743.3333333333334
468,2007-12-02,26.916666666666668,270.5833333333333,297.5
468,2007-12-03,454.2083333333333,225.33333333333334,679.5416666666666
468,2007-12-04,866.75,210.58333333333334,1077.3333333333333
468,2007-12-05,854.875,205.16666666666666,1060.0416666666667
468,2007-12-06,891.0833333333334,226.41666666666666,1117.5
468,2007-12-07,980.0416666666666,190.08333333333334,1170.125
468,2007-12-08,310.5833333333333,449.3333333333333,759.9166666666666
468,2007-12-09,51.416666666666664,229.75,281.1666666666667
468,2007-12-10,417.0416666666667,239.58333333333334,656.625
468,2007-12-11,844.7083333333334,210.75,1055.4583333333335
468,2007-12-12,895.6666666666666,196.58333333333334,1092.25
468,2007-12-13,916.0,195.33333333333334,1111.3333333333333
468,2007-12-14,929.75,221.58333333333334,1151.3333333333333
468,2007-12-15,485.2083333333333,246.08333333333334,731.2916666666666
468,2007-12-16,0.0,207.66666666666666,207.66666666666666
468,2007-12-17,464.1666666666667,213.66666666666666,677.8333333333334
468,2007-12-18,858.375,197.16666666666666,1055.5416666666667
468,2007-12-19,869.5833333333334,221.91666666666666,1091.5
468,2007-12-20,868.625,222.08333333333334,1090.7083333333333
468,2007-12-21,897.5,227.0,1124.5
468,2007-12-22,472.2916666666667,223.41666666666666,695.7083333333334
468,2007-12-23,0.0,202.41666666666666,202.41666666666666
468,2007-12-24,557.375,233.58333333333334,790.9583333333334
468,2007-12-25,162.5,192.83333333333334,355.33333333333337
468,2007-12-26,442.25,222.08333333333334,664.3333333333334
468,2007-12-27,840.25,210.16666666666666,1050.4166666666667
468,2007-12-28,920.4583333333334,207.33333333333334,1127.7916666666667
468,2007-12-29,485.5833333333333,293.4166666666667,779.0
468,2007-12-30,59.125,234.08333333333334,293.20833333333337
468,2007-12-31,510.2916666666667,279.75,790.0416666666667
468,2008-01-01,146.875,227.5,374.375
468,2008-01-02,441.8333333333333,209.75,651.5833333333333
468,2008-01-03,793.0,226.91666666666666,1019.9166666666666
468,2008-01-04,821.0416666666666,323.0,1144.0416666666665
468,2008-01-05,200.375,504.0833333333333,704.4583333333333
468,2008-01-06,0.0,281.5833333333333,281.5833333333333
468,2008-01-07,385.9583333333333,292.9166666666667,678.875
468,2008-01-08,846.875,224.83333333333334,1071.7083333333333
468,2008-01-09,897.3333333333334,172.5,1069.8333333333335
468,2008-01-10,716.8333333333334,250.83333333333334,967.6666666666667
468,2008-01-11,779.4166666666666,269.04347826086956,1048.4601449275362
468,2008-01-12,494.9583333333333,252.25,747.2083333333333
468,2008-01-13,0.0,265.0,265.0
468,2008-01-14,444.0416666666667,197.5,641.5416666666667
468,2008-01-15,883.6666666666666,180.25,1063.9166666666665
468,2008-01-16,919.2083333333334,160.58333333333334,1079.7916666666667
468,2008-01-17,884.0,147.66666666666666,1031.6666666666667
468,2008-01-18,840.625,244.25,1084.875
468,2008-01-19,602.2083333333334,350.8333333333333,953.0416666666667
468,2008-01-20,87.75,518.4166666666666,606.1666666666666
468,2008-01-21,0.0,291.0,291.0
468,2008-01-22,405.0,245.0,650.0
468,2008-01-23,789.8333333333334,162.83333333333334,952.6666666666667
468,2008-01-24,835.9166666666666,175.41666666666666,1011.3333333333333
468,2008-01-25,762.0,206.16666666666666,968.1666666666666
468,2008-01-26,392.6666666666667,280.0833333333333,672.75
468,2008-01-27,0.0,306.5833333333333,306.5833333333333
468,2008-01-28,380.7083333333333,249.91666666666666,630.625
468,2008-01-29,785.875,178.41666666666666,964.2916666666666
468,2008-01-30,786.3333333333334,191.41666666666666,977.75
468,2008-01-31,769.0416666666666,228.41666666666666,997.4583333333333
468,2008-02-01,773.5,185.0,958.5
468,2008-02-02,372.0,251.5,623.5
468,2008-02-03,0.0,262.3333333333333,262.3333333333333
468,2008-02-04,397.125,241.5,638.625
468,2008-02-05,757.6666666666666,263.0833333333333,1020.75
468,2008-02-06,775.5833333333334,194.25,969.8333333333334
468,2008-02-07,749.1666666666666,207.0,956.1666666666666
468,2008-02-08,760.0833333333334,178.16666666666666,938.25
468,2008-02-09,433.7916666666667,219.58333333333334,653.375
468,2008-02-10,0.0,328.0833333333333,328.0833333333333
468,2008-02-11,364.5416666666667,276.25,640.7916666666667
468,2008-02-12,255.58333333333334,262.1666666666667,517.75
468,2008-02-13,371.625,219.33333333333334,590.9583333333334
468,2008-02-14,675.1666666666666,161.25,836.4166666666666
468,2008-02-15,656.2083333333334,139.66666666666666,795.875
468,2008-02-16,363.4166666666667,143.41666666666666,506.83333333333337
468,2008-02-17,39.5,258.5833333333333,298.0833333333333
468,2008-02-18,0.0,279.1666666666667,279.1666666666667
468,2008-02-19,335.3333333333333,214.75,550.0833333333333
468,2008-02-20,610.0416666666666,174.66666666666666,784.7083333333333
468,2008-02-21,744.125,134.41666666666666,878.5416666666666
468,2008-02-22,733.5416666666666,178.66666666666666,912.2083333333333
468,2008-02-23,232.20833333333334,378.1666666666667,610.375
468,2008-02-24,0.0,327.9166666666667,327.9166666666667
468,2008-02-25,410.0,269.0,679.0
468,2008-02-26,794.5,189.0,983.5
468,2008-02-27,865.5,173.66666666666666,1039.1666666666667
468,2008-02-28,711.0,265.1666666666667,976.1666666666667
468,2008-02-29,747.7083333333334,282.3333333333333,1030.0416666666667
468,2008-03-01,427.0833333333333,266.0833333333333,693.1666666666666
468,2008-03-02,83.125,281.4166666666667,364.5416666666667
468,2008-03-03,256.25,298.55555555555554,554.8055555555555
468,2008-03-04,502.2916666666667,377.5833333333333,879.875
468,2008-03-05,718.7916666666666,231.58333333333334,950.375
468,2008-03-06,733.0833333333334,258.6666666666667,991.75
468,2008-03-07,671.75,310.3333333333333,982.0833333333333
468,2008-03-08,588.7083333333334,238.25,826.9583333333334
468,2008-03-09,209.91666666666666,362.0833333333333,572.0
468,2008-03-10,131.70833333333334,287.06666666666666,418.775
468,2008-03-11,604.0416666666666,182.0,786.0416666666666
468,2008-03-12,684.1666666666666,289.25,973.4166666666666
468,2008-03-13,679.875,288.75,968.625
468,2008-03-14,700.9166666666666,316.25,1017.1666666666666
468,2008-03-15,330.75,271.8333333333333,602.5833333333333
468,2008-03-16,86.20833333333333,176.69565217391303,262.9039855072464
468,2008-03-17,530.9583333333334,196.33333333333334,727.2916666666667
468,2008-03-18,801.7916666666666,217.66666666666666,1019.4583333333333
468,2008-03-19,760.2083333333334,176.8695652173913,937.0778985507247
468,2008-03-20,750.5,272.0,1022.5
468,2008-03-21,336.5416666666667,188.34782608695653,524.8894927536232
468,2008-03-22,0.0,178.08333333333334,178.08333333333334
468,2008-03-23,34.5,190.5,225.0
468,2008-03-24,471.2083333333333,241.41666666666666,712.625
468,2008-03-25,862.0416666666666,207.58333333333334,1069.625
468,2008-03-26,683.4583333333334,192.41666666666666,875.875
468,2008-03-27,910.9583333333334,189.08333333333334,1100.0416666666667
468,2008-03-28,797.8333333333334,198.7826086956522,996.6159420289855
468,2008-03-29,361.6666666666667,270.0833333333333,631.75
468,2008-03-30,6.041666666666667,328.1666666666667,334.20833333333337
468,2008-03-31,399.6666666666667,307.0833333333333,706.75
468,2008-04-01,702.75,226.58333333333334,929.3333333333334
468,2008-04-02,616.4583333333334,315.6666666666667,932.125
468,2008-04-03,770.375,202.0,972.375
468,2008-04-04,732.7916666666666,221.41666666666666,954.2083333333333
468,2008-04-05,364.8333333333333,251.66666666666666,616.5
468,2008-04-06,0.0,228.41666666666666,228.41666666666666
468,2008-04-07,408.5,222.08333333333334,630.5833333333334
468,2008-04-08,751.5416666666666,213.25,964.7916666666666
468,2008-04-09,726.5833333333334,223.16666666666666,949.75
468,2008-04-10,761.5,266.6666666666667,1028.1666666666667
468,2008-04-11,803.1666666666666,238.33333333333334,1041.5
468,2008-04-12,358.5416666666667,293.1666666666667,651.7083333333334
468,2008-04-13,98.45833333333333,263.75,362.2083333333333
468,2008-04-14,460.7083333333333,250.75,711.4583333333333